DW0664 Weather Reports


Display with metric or nautical units.
time (UTC)temp
F
wind
direction
speed
MPH
gust
MPH
rain 1hr
in
rain 24hr
in
rain mn
in
humidity
%
barometer
mb
20260906212502 91 59 0.0 1.0 0.00 0.00 0.00 62 1014.1
20260906211957 90 54 0.0 2.0 0.00 0.00 0.00 63 1014.2
20260906211451 91 345 1.0 1.0 0.00 0.00 0.00 61 1014.3
20260906210947 91 90 1.0 3.0 0.00 0.00 0.00 62 1014.6
20260906210443 92 343 1.0 2.0 0.00 0.00 0.00 60 1014.4
20260906205941 94 43 0.0 1.0 0.00 0.00 0.00 58 1014.6
20260906205438 96 114 1.0 1.0 0.00 0.00 0.00 53 1014.8
20260906204934 95 49 1.0 3.0 0.00 0.00 0.00 55 1014.7
20260906204433 93 56 0.0 2.0 0.00 0.00 0.00 57 1014.6
20260906203932 91 53 0.0 1.0 0.00 0.00 0.00 61 1014.6
20260906203428 90 52 1.0 2.0 0.00 0.00 0.00 62 1014.8
20260906202925 90 42 1.0 2.0 0.00 0.00 0.00 63 1014.9
20260906202424 91 48 2.0 6.0 0.00 0.00 0.00 62 1014.9
20260906201919 94 25 1.0 2.0 0.00 0.00 0.00 59 1014.8
20260906201413 98 347 2.0 3.0 0.00 0.00 0.00 54 1015.0
20260906200909 99 204 1.0 3.0 0.00 0.00 0.00 48 1014.9
20260906200405 98 171 0.0 2.0 0.00 0.00 0.00 49 1015.0
20260906195859 96 12 1.0 1.0 0.00 0.00 0.00 52 1014.8
20260906195356 95 93 1.0 2.0 0.00 0.00 0.00 54 1014.8
20260906194851 96 144 5.0 7.0 0.00 0.00 0.00 53 1014.7
20260906194347 95 114 2.0 4.0 0.00 0.00 0.00 54 1014.7
20260906193843 93 74 0.0 1.0 0.00 0.00 0.00 59 1014.9
20260906193338 94 111 2.0 3.0 0.00 0.00 0.00 56 1015.2
20260906192833 95 119 1.0 2.0 0.00 0.00 0.00 56 1015.3
20260906192327 95 119 3.0 4.0 0.00 0.00 0.00 54 1015.4
20260906191826 95 65 0.0 1.0 0.00 0.00 0.00 55 1015.4
20260906191321 93 51 0.0 0.0 0.00 0.00 0.00 57 1015.3
20260906190816 93 73 1.0 3.0 0.00 0.00 0.00 56 1015.2
20260906190315 94 69 0.0 2.0 0.00 0.00 0.00 56 1015.3
20260906185814 93 142 2.0 4.0 0.00 0.00 0.00 56 1015.4
20260906185314 94 95 1.0 3.0 0.00 0.00 0.00 55 1015.4
20260906184808 95 73 2.0 3.0 0.00 0.00 0.00 53 1015.6
20260906184303 95 73 0.0 1.0 0.00 0.00 0.00 53 1015.6
20260906183759 95 60 0.0 3.0 0.00 0.00 0.00 53 1015.6
20260906183255 95 91 1.0 2.0 0.00 0.00 0.00 54 1015.4
20260906182755 93 105 2.0 3.0 0.00 0.00 0.00 57 1015.6
20260906182251 92 73 2.0 3.0 0.00 0.00 0.00 59 1015.5
20260906181746 93 82 2.0 4.0 0.00 0.00 0.00 59 1015.7
20260906181243 93 73 0.0 1.0 0.00 0.00 0.00 59 1015.7
20260906180743 92 84 0.0 1.0 0.00 0.00 0.00 59 1016.0
20260906180238 92 73 1.0 2.0 0.00 0.00 0.00 60 1016.0
20260906175735 91 79 1.0 4.0 0.00 0.00 0.00 61 1016.0
20260906175231 92 67 2.0 3.0 0.00 0.00 0.00 60 1016.1
20260906174730 92 95 0.0 2.0 0.00 0.00 0.00 60 1016.0
20260906174229 92 125 2.0 2.0 0.00 0.00 0.00 58 1016.1
20260906173719 93 77 1.0 2.0 0.00 0.00 0.00 58 1016.3
20260906173215 94 53 1.0 1.0 0.00 0.00 0.00 58 1016.1
20260906172714 93 107 1.0 2.0 0.00 0.00 0.00 58 1016.4
20260906172210 93 64 0.0 1.0 0.00 0.00 0.00 58 1016.3
20260906171710 94 61 0.0 2.0 0.00 0.00 0.00 60 1016.4
20260906171205 95 38 0.0 1.0 0.00 0.00 0.00 58 1016.6
20260906170701 94 9 1.0 2.0 0.00 0.00 0.00 59 1016.7
20260906170201 91 51 0.0 1.0 0.00 0.00 0.00 62 1016.7
20260906165657 91 64 0.0 1.0 0.00 0.00 0.00 64 1016.7
20260906165158 91 43 1.0 2.0 0.00 0.00 0.00 64 1016.7
20260906164656 91 62 0.0 1.0 0.00 0.00 0.00 64 1016.9
20260906164152 90 131 0.0 1.0 0.00 0.00 0.00 66 1016.8
20260906163648 89 71 0.0 1.0 0.00 0.00 0.00 70 1016.7
20260906163144 88 65 0.0 1.0 0.00 0.00 0.00 71 1017.1
20260906162641 89 78 0.0 2.0 0.00 0.00 0.00 69 1016.7
20260906162140 89 65 0.0 1.0 0.00 0.00 0.00 67 1017.0
20260906161635 90 75 0.0 1.0 0.00 0.00 0.00 67 1017.2
20260906161134 90 58 1.0 1.0 0.00 0.00 0.00 68 1016.8
20260906160633 90 72 1.0 2.0 0.00 0.00 0.00 67 1016.9
20260906160132 89 72 0.0 1.0 0.00 0.00 0.00 67 1016.9
20260906155630 89 64 0.0 1.0 0.00 0.00 0.00 71 1016.9
20260906155126 89 66 0.0 1.0 0.00 0.00 0.00 69 1016.7
20260906154621 89 71 0.0 1.0 0.00 0.00 0.00 69 1016.7
20260906154121 90 60 0.0 0.0 0.00 0.00 0.00 69 1017.0
20260906153620 90 78 0.0 1.0 0.00 0.00 0.00 70 1016.8
20260906153115 89 77 0.0 1.0 0.00 0.00 0.00 71 1016.9
20260906152614 89 72 0.0 2.0 0.00 0.00 0.00 72 1016.7
20260906152109 88 65 0.0 1.0 0.00 0.00 0.00 75 1016.6
20260906151604 88 85 1.0 1.0 0.00 0.00 0.00 75 1016.7
20260906151059 87 67 0.0 1.0 0.00 0.00 0.00 76 1016.9
20260906150555 87 65 0.0 1.0 0.00 0.00 0.00 78 1016.6
20260906150050 86 175 1.0 1.0 0.00 0.00 0.00 80 1016.7
20260906145548 86 59 0.0 1.0 0.00 0.00 0.00 83 1016.6
20260906145044 85 66 0.0 1.0 0.00 0.00 0.00 83 1016.6
20260906144538 85 90 1.0 1.0 0.00 0.00 0.00 83 1016.9
20260906144033 85 62 1.0 2.0 0.00 0.00 0.00 83 1016.7
20260906143528 85 61 0.0 0.0 0.00 0.00 0.00 83 1016.8
20260906143026 85 66 0.0 0.0 0.00 0.00 0.00 84 1016.9
20260906142524 84 64 0.0 1.0 0.00 0.00 0.00 84 1016.7
20260906142020 84 74 1.0 3.0 0.00 0.00 0.00 84 1016.7
20260906141519 85 116 2.0 3.0 0.00 0.00 0.00 82 1016.7
20260906141014 84 66 0.0 1.0 0.00 0.00 0.00 86 1016.6
20260906140508 82 66 0.0 1.0 0.00 0.00 0.00 88 1016.4
20260906140007 82 81 0.0 1.0 0.00 0.00 0.00 89 1016.5
20260906135505 82 81 1.0 1.0 0.00 0.00 0.00 89 1016.4
20260906135000 81 71 0.0 1.0 0.00 0.00 0.00 89 1016.5
20260906134456 81 72 0.0 1.0 0.00 0.00 0.00 90 1016.5
20260906133956 81 70 0.0 2.0 0.00 0.00 0.00 90 1016.7
20260906133452 81 78 1.0 1.0 0.00 0.00 0.00 90 1016.6
20260906132948 81 73 0.0 1.0 0.00 0.00 0.00 91 1016.4
20260906132443 80 69 0.0 2.0 0.00 0.00 0.00 91 1016.6
20260906131938 80 80 0.0 2.0 0.00 0.00 0.00 92 1016.3
20260906131433 79 112 2.0 2.0 0.00 0.00 0.00 93 1016.2
20260906130929 79 72 0.0 2.0 0.00 0.00 0.00 94 1016.3
20260906130428 79 61 0.0 1.0 0.00 0.00 0.00 94 1016.2
20260906125928 79 85 1.0 1.0 0.00 0.00 0.00 94 1016.1
20260906125425 78 62 0.0 1.0 0.00 0.00 0.00 95 1016.2
20260906124919 78 69 0.0 1.0 0.00 0.00 0.00 95 1015.9
20260906124416 78 66 0.0 2.0 0.00 0.00 0.00 96 1016.0
20260906123916 78 64 0.0 0.0 0.00 0.00 0.00 96 1016.2
20260906123410 78 64 0.0 1.0 0.00 0.00 0.00 96 1016.1
20260906122909 77 62 0.0 0.0 0.00 0.00 0.00 96 1016.0
20260906122404 77 60 0.0 0.0 0.00 0.00 0.00 96 1015.9
20260906121901 77 59 0.0 0.0 0.00 0.00 0.00 96 1015.9
20260906121357 77 59 0.0 0.0 0.00 0.00 0.00 96 1015.8
20260906120853 77 60 0.0 0.0 0.00 0.00 0.00 95 1015.5
20260906120348 77 60 0.0 0.0 0.00 0.00 0.00 95 1015.5
20260906115844 77 61 0.0 0.0 0.00 0.00 0.00 95 1015.4
20260906115339 77 60 0.0 0.0 0.00 0.00 0.00 95 1015.3
20260906114839 77 62 0.0 0.0 0.00 0.00 0.00 95 1015.3
20260906114334 77 63 0.0 0.0 0.00 0.00 0.00 95 1015.2
20260906113829 77 66 0.0 1.0 0.00 0.00 0.00 95 1015.2
20260906113328 77 69 0.0 1.0 0.00 0.00 0.00 95 1015.2
20260906112824 77 64 0.0 1.0 0.00 0.00 0.00 95 1015.4
20260906112320 77 72 0.0 1.0 0.00 0.00 0.00 95 1015.2
20260906111814 77 85 0.0 1.0 0.00 0.00 0.00 95 1015.0
20260906111313 77 60 0.0 3.0 0.00 0.00 0.00 95 1015.0
20260906110808 77 61 0.0 1.0 0.00 0.00 0.00 95 1015.2
20260906110305 77 65 0.0 1.0 0.00 0.00 0.00 95 1015.2
20260906105803 77 78 1.0 1.0 0.00 0.00 0.00 95 1014.9
20260906105259 77 86 1.0 2.0 0.00 0.00 0.00 95 1014.8
20260906104754 77 68 0.0 1.0 0.00 0.00 0.00 94 1014.9
20260906104253 78 77 1.0 2.0 0.00 0.00 0.00 94 1014.7
20260906103751 78 63 0.0 1.0 0.00 0.00 0.00 94 1014.5
20260906103245 78 70 0.0 1.0 0.00 0.00 0.00 94 1014.5
20260906102741 77 61 0.0 0.0 0.00 0.00 0.00 94 1014.5
20260906102235 78 62 0.0 0.0 0.00 0.00 0.00 93 1014.5
20260906101730 78 61 0.0 0.0 0.00 0.00 0.00 93 1014.3
20260906101225 78 64 0.0 0.0 0.00 0.00 0.00 93 1014.4
20260906100721 78 63 0.0 0.0 0.00 0.00 0.00 93 1014.2
20260906100220 78 59 0.0 0.0 0.00 0.00 0.00 93 1014.3
20260906095720 78 62 0.0 0.0 0.00 0.00 0.00 93 1014.3
20260906095216 78 59 0.0 0.0 0.00 0.00 0.00 92 1014.4
20260906094714 78 59 0.0 0.0 0.00 0.00 0.00 92 1014.3
20260906094210 78 58 0.0 0.0 0.00 0.00 0.00 92 1014.3
20260906093706 78 59 0.0 0.0 0.00 0.00 0.00 92 1014.4
20260906093201 78 59 0.0 0.0 0.00 0.00 0.00 91 1014.2
20260906092651 78 60 0.0 0.0 0.00 0.00 0.00 91 1014.5
20260906092151 78 62 0.0 1.0 0.00 0.00 0.00 91 1014.4
20260906091647 78 58 0.0 0.0 0.00 0.00 0.00 91 1014.2
20260906091143 79 62 0.0 0.0 0.00 0.00 0.00 91 1014.3
20260906090639 79 61 0.0 0.0 0.00 0.00 0.00 91 1014.2
20260906090138 79 64 0.0 0.0 0.00 0.00 0.00 91 1014.1
20260906085637 79 60 0.0 0.0 0.00 0.00 0.00 90 1014.2
20260906085132 79 60 0.0 0.0 0.00 0.00 0.00 90 1014.2
20260906084626 79 60 0.0 0.0 0.00 0.00 0.00 90 1014.3
20260906084125 79 60 0.0 0.0 0.00 0.00 0.00 90 1014.1
20260906083620 79 62 0.0 0.0 0.00 0.00 0.00 90 1014.2
20260906083115 79 63 0.0 0.0 0.00 0.00 0.00 90 1014.1
20260906082611 79 61 0.0 0.0 0.00 0.00 0.00 90 1014.3
20260906082106 79 53 0.0 0.0 0.00 0.00 0.00 90 1014.4
20260906081602 79 64 0.0 1.0 0.00 0.00 0.00 90 1014.4
20260906081057 79 70 0.0 1.0 0.00 0.00 0.00 90 1014.5
20260906080554 79 71 0.0 1.0 0.00 0.00 0.00 90 1014.5
20260906080049 79 67 0.0 0.0 0.00 0.00 0.00 90 1014.6
20260906075543 79 65 0.0 0.0 0.00 0.00 0.00 90 1014.2
20260906075038 79 63 0.0 0.0 0.00 0.00 0.00 90 1014.5
20260906074533 79 57 0.0 0.0 0.00 0.00 0.00 90 1014.4
20260906074031 79 65 0.0 0.0 0.00 0.00 0.00 90 1014.6
20260906073527 79 64 0.0 1.0 0.00 0.00 0.00 90 1014.6
20260906073023 79 52 0.0 0.0 0.00 0.00 0.00 90 1014.7
20260906072517 79 61 0.0 0.0 0.00 0.00 0.00 90 1014.9
20260906072014 79 60 0.0 0.0 0.00 0.00 0.00 90 1014.8
20260906071510 79 357 0.0 0.0 0.00 0.00 0.00 90 1014.8
20260906071004 79 61 0.0 0.0 0.00 0.00 0.00 90 1014.9
20260906070501 79 62 0.0 1.0 0.00 0.00 0.00 90 1014.9
20260906065956 79 69 0.0 1.0 0.00 0.00 0.00 90 1014.9
20260906065455 79 62 0.0 0.0 0.00 0.00 0.00 89 1015.0
20260906064951 79 66 0.0 0.0 0.00 0.00 0.00 89 1014.9
20260906064448 79 60 0.0 1.0 0.00 0.00 0.00 89 1015.0
20260906063947 79 67 0.0 1.0 0.00 0.00 0.00 89 1014.9
20260906063443 79 52 0.0 3.0 0.00 0.00 0.00 89 1014.9
20260906062938 79 92 1.0 2.0 0.00 0.00 0.00 89 1014.9
20260906062433 79 77 0.0 0.0 0.00 0.00 0.00 89 1014.9
20260906061927 79 60 0.0 0.0 0.00 0.00 0.00 89 1014.7
20260906061423 80 58 0.0 1.0 0.00 0.00 0.00 89 1015.2
20260906060917 80 69 0.0 1.0 0.00 0.00 0.00 89 1014.9
20260906060415 80 97 1.0 3.0 0.00 0.00 0.00 89 1015.2
20260906055911 80 97 1.0 3.0 0.00 0.00 0.00 88 1015.3
20260906055407 80 70 0.0 1.0 0.00 0.00 0.00 88 1015.2
20260906054902 80 66 0.0 3.0 0.00 0.00 0.00 88 1014.9
20260906054356 80 60 2.0 3.0 0.00 0.00 0.00 88 1015.0
20260906053853 80 54 2.0 2.0 0.00 0.00 0.00 88 1014.9
20260906053348 80 80 1.0 3.0 0.00 0.00 0.00 88 1014.9
20260906052844 80 89 1.0 3.0 0.00 0.00 0.00 88 1014.9
20260906052340 80 73 1.0 2.0 0.00 0.00 0.00 88 1014.9
20260906051837 80 44 0.0 1.0 0.00 0.00 0.00 88 1015.2
20260906051336 80 127 0.0 1.0 0.00 0.00 0.00 88 1015.2
20260906050832 80 76 0.0 1.0 0.00 0.00 0.00 88 1015.2
20260906050327 80 128 1.0 3.0 0.00 0.00 0.00 88 1015.2
20260906045825 80 59 1.0 2.0 0.00 0.00 0.00 87 1015.3
20260906045320 80 171 2.0 3.0 0.00 0.00 0.00 87 1015.4
20260906044817 79 114 1.0 2.0 0.00 0.00 0.00 87 1015.3
20260906044311 80 83 1.0 1.0 0.00 0.00 0.00 87 1015.4
20260906043807 80 80 0.0 1.0 0.00 0.00 0.00 87 1015.2
20260906043303 80 71 0.0 3.0 0.00 0.00 0.00 86 1015.3
20260906042802 80 66 0.0 1.0 0.00 0.00 0.00 86 1015.0
20260906042302 80 79 2.0 2.0 0.00 0.00 0.00 86 1015.0
20260906041757 80 72 0.0 0.0 0.00 0.00 0.00 86 1014.9
20260906041252 80 70 0.0 1.0 0.00 0.00 0.00 86 1015.2
20260906040748 80 74 1.0 1.0 0.00 0.00 0.00 86 1015.2
20260906040242 80 69 0.0 2.0 0.00 0.00 0.00 86 1015.0
20260906035738 80 68 0.0 2.0 0.00 0.00 0.00 85 1014.9
20260906035234 80 98 1.0 2.0 0.00 0.00 0.00 85 1014.9
20260906034734 80 65 0.0 2.0 0.00 0.00 0.00 85 1014.9
20260906034229 80 63 1.0 3.0 0.00 0.00 0.00 84 1014.9
20260906033724 80 88 1.0 1.0 0.00 0.00 0.00 84 1015.0
20260906033218 80 67 0.0 1.0 0.00 0.00 0.00 84 1014.9
20260906032715 80 89 1.0 2.0 0.00 0.00 0.00 84 1015.0
20260906032210 80 94 1.0 3.0 0.00 0.00 0.00 84 1015.3
20260906031705 80 94 1.0 3.0 0.00 0.00 0.00 84 1015.4
20260906031200 80 93 1.0 2.0 0.00 0.00 0.00 84 1015.0
20260906030659 80 69 1.0 4.0 0.00 0.00 0.00 85 1015.2
20260906030154 80 99 0.0 2.0 0.00 0.00 0.00 85 1015.2
20260906025653 80 102 1.0 3.0 0.00 0.00 0.00 85 1015.3
20260906025148 80 77 1.0 3.0 0.00 0.00 0.00 85 1015.0
20260906024642 80 107 3.0 4.0 0.00 0.00 0.00 85 1015.2
20260906024137 80 184 1.0 3.0 0.00 0.00 0.00 84 1015.0
20260906023633 80 66 0.0 1.0 0.00 0.00 0.00 84 1014.9
20260906023132 80 86 0.0 3.0 0.00 0.00 0.00 83 1014.8
20260906022627 80 87 2.0 3.0 0.00 0.00 0.00 83 1014.7
20260906022123 81 74 0.0 2.0 0.00 0.00 0.00 82 1014.7
20260906021619 81 126 2.0 2.0 0.00 0.00 0.00 82 1014.6
20260906021118 81 95 1.0 2.0 0.00 0.00 0.00 81 1014.8
20260906020617 81 73 0.0 1.0 0.00 0.00 0.00 81 1014.4
20260906020112 81 73 1.0 1.0 0.00 0.00 0.00 80 1014.5
20260906015612 81 67 1.0 1.0 0.00 0.00 0.00 79 1014.4
20260906015110 82 80 2.0 2.0 0.00 0.00 0.00 79 1014.4
20260906014605 82 98 1.0 3.0 0.00 0.00 0.00 78 1014.5
20260906014102 82 108 1.0 1.0 0.00 0.00 0.00 78 1014.1
20260906013557 82 65 0.0 3.0 0.00 0.00 0.00 78 1013.8
20260906013052 82 63 0.0 3.0 0.00 0.00 0.00 78 1013.6
20260906012547 82 46 1.0 3.0 0.00 0.00 0.00 77 1014.0
20260906012046 82 83 0.0 1.0 0.00 0.00 0.00 76 1013.8
20260906011543 82 86 1.0 2.0 0.00 0.00 0.00 76 1013.9
20260906011042 82 69 0.0 3.0 0.00 0.00 0.00 76 1013.8
20260906010538 83 85 1.0 2.0 0.00 0.00 0.00 75 1013.7
20260906010034 83 64 0.0 4.0 0.00 0.00 0.00 74 1013.9
20260906005533 83 91 3.0 3.0 0.00 0.00 0.00 74 1013.8
20260906005032 83 106 2.0 3.0 0.00 0.00 0.00 73 1013.9
20260906004532 83 131 3.0 6.0 0.00 0.00 0.00 73 1014.1
20260906004027 84 116 1.0 2.0 0.00 0.00 0.00 73 1014.3
20260906003523 84 83 1.0 3.0 0.00 0.00 0.00 72 1014.3
20260906003019 84 103 1.0 3.0 0.00 0.00 0.00 71 1014.3
20260906002519 84 62 1.0 3.0 0.00 0.00 0.00 70 1014.3
20260906002013 85 240 2.0 3.0 0.00 0.00 0.00 70 1014.1
20260906001509 85 61 2.0 8.0 0.00 0.00 0.00 69 1014.4
20260906001003 85 101 4.0 6.0 0.00 0.00 0.00 68 1014.3
20260906000459 85 82 2.0 4.0 0.00 0.00 0.00 68 1014.2
20260905235954 86 58 0.0 1.0 0.00 0.00 0.00 68 1014.2
20260905235453 86 109 4.0 6.0 0.00 0.00 0.00 67 1014.1
20260905234948 86 60 0.0 2.0 0.00 0.00 0.00 67 1014.1
20260905234444 86 58 1.0 7.0 0.00 0.00 0.00 66 1014.2
20260905233938 87 92 1.0 4.0 0.00 0.00 0.00 66 1014.1
20260905233434 87 74 2.0 4.0 0.00 0.00 0.00 65 1013.9
20260905232932 87 68 1.0 3.0 0.00 0.00 0.00 65 1013.9
20260905232429 88 30 1.0 6.0 0.00 0.00 0.00 65 1013.7
20260905231924 88 87 1.0 3.0 0.00 0.00 0.00 66 1013.9
20260905231420 88 63 0.0 3.0 0.00 0.00 0.00 66 1013.7
20260905230916 88 63 0.0 2.0 0.00 0.00 0.00 66 1013.8
20260905230414 89 68 3.0 6.0 0.00 0.00 0.00 66 1013.7
20260905225913 89 60 0.0 0.0 0.00 0.00 0.00 69 1013.6
20260905225408 88 60 0.0 0.0 0.00 0.00 0.00 69 1013.5
20260905224903 88 62 0.0 0.0 0.00 0.00 0.00 70 1013.6
20260905224359 88 63 0.0 0.0 0.00 0.00 0.00 70 1013.7
20260905223853 88 65 0.0 0.0 0.00 0.00 0.00 69 1013.5
20260905223351 89 80 1.0 1.0 0.00 0.00 0.00 68 1013.8
20260905222845 90 59 0.0 1.0 0.00 0.00 0.00 66 1014.0
20260905222344 90 61 0.0 0.0 0.00 0.00 0.00 64 1014.0
20260905221840 90 58 0.0 1.0 0.00 0.00 0.00 64 1013.8
20260905221337 90 97 1.0 2.0 0.00 0.00 0.00 62 1013.9
20260905220833 91 58 0.0 2.0 0.00 0.00 0.00 62 1013.5
20260905220329 92 61 0.0 1.0 0.00 0.00 0.00 60 1013.8
20260905215828 93 61 0.0 2.0 0.00 0.00 0.00 58 1013.6
20260905215323 94 61 0.0 0.0 0.00 0.00 0.00 56 1013.5
20260905214820 93 67 0.0 1.0 0.00 0.00 0.00 54 1013.4
20260905214315 93 63 0.0 1.0 0.00 0.00 0.00 55 1013.4
20260905213810 93 3 0.0 1.0 0.00 0.00 0.00 55 1013.6
20260905213307 93 55 0.0 1.0 0.00 0.00 0.00 56 1013.6
20260905212806 93 63 0.0 1.0 0.00 0.00 0.00 54 1013.7